AT160 Weather Reports


time (UTC)temp
C
wind
direction
speed
KPH
gust
KPH
rain 1hr
cm
rain 24hr
cm
rain mn
cm
humidity
%
barometer
mb
20260504015449 10 68 9.7 19.3 0.00 0.00 0.00 52 1018.5
20260504014951 10 326 9.7 19.3 0.00 0.00 0.00 52 1018.5
20260504014450 10 302 9.7 17.7 0.00 0.00 0.00 53 1018.5
20260504013954 10 329 8.0 16.1 0.00 0.00 0.00 52 1018.3
20260504013456 10 325 9.7 17.7 0.00 0.00 0.00 52 1018.3
20260504012954 10 320 9.7 17.7 0.00 0.00 0.00 52 1018.3
20260504012448 9 350 8.0 12.9 0.00 0.00 0.00 54 1018.4
20260504011955 9 322 6.4 12.9 0.00 0.00 0.00 54 1018.4
20260504011641 10 305 6.4 11.3 0.00 0.00 0.00 53 1018.5
20260504011458 9 315 6.4 9.7 0.00 0.00 0.00 54 1018.4
20260504010459 10 325 6.4 11.3 0.00 0.00 0.00 53 1018.5
20260504005954 10 335 6.4 11.3 0.00 0.00 0.00 54 1018.5
20260504005636 10 298 3.2 9.7 0.00 0.00 0.00 51 1018.4
20260504005458 10 328 4.8 11.3 0.00 0.00 0.00 53 1018.4
20260504004450 11 308 4.8 9.7 0.00 0.00 0.00 50 1018.4
20260504003950 11 356 6.4 19.3 0.00 0.00 0.00 49 1018.3
20260504003449 11 357 9.7 19.3 0.00 0.00 0.00 49 1018.3
20260504002942 10 357 8.0 17.7 0.00 0.00 0.00 51 1018.3
20260504002446 10 359 6.4 12.9 0.00 0.00 0.00 53 1018.2
20260504001944 10 357 8.0 16.1 0.00 0.00 0.00 54 1018.2
20260504001441 10 357 8.0 16.1 0.00 0.00 0.00 54 1018.2
20260504000937 10 357 8.0 12.9 0.00 0.00 0.00 54 1018.1
20260504000433 10 356 6.4 0.0 0.00 0.00 0.00 54 1018.1
20260503235801 10 357 6.4 16.1 0.00 0.00 0.00 55 1018.0
20260503235256 10 357 6.4 12.9 0.00 0.00 0.00 55 1018.0
20260503234757 10 359 6.4 14.5 0.00 0.00 0.00 56 1018.0
20260503234249 10 357 8.0 14.5 0.00 0.00 0.00 56 1018.0
20260503233251 10 357 6.4 12.9 0.00 0.00 0.00 57 1018.0
20260503232748 10 357 4.8 12.9 0.00 0.00 0.00 59 1018.0
20260503232245 10 357 6.4 11.3 0.00 0.00 0.00 60 1018.0
20260503231744 10 359 4.8 11.3 0.00 0.00 0.00 62 1018.0
20260503231237 10 357 6.4 12.9 0.00 0.00 0.00 63 1018.0
20260503230240 9 359 6.4 12.9 0.00 0.00 0.00 64 1018.0
20260503225742 10 357 4.8 11.3 0.00 0.00 0.00 64 1017.9
20260503225238 10 359 4.8 9.7 0.00 0.00 0.00 62 1017.9
20260503224737 10 359 4.8 12.9 0.00 0.00 0.00 61 1017.9
20260503224229 10 357 4.8 12.9 0.00 0.00 0.00 60 1017.7
20260503223730 11 357 3.2 9.7 0.00 0.00 0.00 60 1017.7
20260503223228 11 357 3.2 9.7 0.00 0.00 0.00 60 1017.7
20260503223212 11 356 3.2 9.7 0.00 0.00 0.00 59 1017.7
20260503222227 11 356 3.2 9.7 0.00 0.00 0.00 59 1017.7
20260503221825 11 357 3.2 9.7 0.00 0.00 0.00 60 1017.8
20260503221727 11 357 3.2 9.7 0.00 0.00 0.00 60 1017.7
20260503220713 11 357 1.6 8.0 0.00 0.00 0.00 60 1017.8
20260503220358 11 356 1.6 8.0 0.00 0.00 0.00 63 1017.8
20260503220223 11 357 1.6 8.0 0.00 0.00 0.00 61 1017.8
20260503215220 11 357 0.0 4.8 0.00 0.00 0.00 66 1017.8
20260503214706 11 357 1.6 8.0 0.00 0.00 0.00 69 1017.8
20260503214205 11 357 3.2 8.0 0.00 0.00 0.00 72 1017.7
20260503213703 11 356 3.2 8.0 0.00 0.00 0.00 73 1017.7
20260503213207 11 356 1.6 8.0 0.00 0.00 0.00 73 1017.7
20260503212713 11 356 0.0 4.8 0.00 0.00 0.00 74 1017.8
20260503212217 11 356 0.0 3.2 0.00 0.00 0.00 75 1017.8
20260503211711 11 357 0.0 1.6 0.00 0.00 0.00 75 1017.8
20260503211207 12 357 0.0 1.6 0.00 0.00 0.00 76 1017.6
20260503210659 12 357 3.2 9.7 0.00 0.00 0.00 76 1017.7
20260503210542 13 6 0.0 4.8 0.00 0.00 0.00 76 1017.5
20260503210452 13 335 1.6 12.9 0.00 0.00 0.00 77 1017.5
20260503210157 13 343 3.2 9.7 0.00 0.00 0.00 76 1017.7
20260503205633 13 359 3.2 12.9 0.00 0.00 0.00 77 1017.5
20260503204243 13 301 0.0 8.0 0.00 0.00 0.00 75 1017.5
20260503204120 13 291 0.0 4.8 0.00 0.00 0.00 75 1017.5
20260503203108 13 267 1.6 9.7 0.00 0.00 0.00 73 1017.5
20260503202607 13 323 1.6 16.1 0.00 0.00 0.00 73 1017.4
20260503202109 14 233 3.2 16.1 0.00 0.00 0.00 72 1017.4
20260503201959 14 206 3.2 17.7 0.00 0.00 0.00 68 1017.4
20260503201650 14 267 4.8 12.9 0.00 0.00 0.00 71 1017.4
20260503201126 14 136 6.4 17.7 0.00 0.00 0.00 70 1017.4
20260503200109 14 185 0.0 11.3 0.00 0.00 0.00 65 1017.4
20260503195740 13 133 1.6 8.0 0.00 0.00 0.00 59 1017.3
20260503195603 13 121 1.6 8.0 0.00 0.00 0.00 62 1017.3
20260503194602 13 93 1.6 8.0 0.00 0.00 0.00 57 1017.3
20260503194055 12 171 1.6 8.0 0.00 0.00 0.00 49 1017.0
20260503193606 12 340 3.2 8.0 0.00 0.00 0.00 46 1016.9
20260503193057 12 337 3.2 8.0 0.00 0.00 0.00 46 1016.9
20260503192600 12 347 3.2 8.0 0.00 0.00 0.00 46 1016.9
20260503192056 12 337 3.2 11.3 0.00 0.00 0.00 46 1016.9
20260503191602 12 336 4.8 11.3 0.00 0.00 0.00 46 1016.9
20260503191403 12 328 3.2 4.8 0.00 0.00 0.00 51 1016.7
20260503191254 12 330 1.6 8.0 0.00 0.00 0.00 50 1016.7
20260503191100 12 339 3.2 9.7 0.00 0.00 0.00 47 1016.9
20260503190606 12 328 1.6 9.7 0.00 0.00 0.00 47 1016.9
20260503190157 12 339 1.6 4.8 0.00 0.00 0.00 48 1016.8
20260503185620 12 326 1.6 8.0 0.00 0.00 0.00 49 1016.6
20260503184058 12 323 1.6 4.8 0.00 0.00 0.00 51 1016.5
20260503183605 12 326 1.6 8.0 0.00 0.00 0.00 50 1016.5
20260503183055 13 322 1.6 8.0 0.00 0.00 0.00 50 1016.5
20260503182603 13 329 1.6 8.0 0.00 0.00 0.00 49 1016.5
20260503182106 13 336 1.6 8.0 0.00 0.00 0.00 49 1016.5
20260503181707 13 357 1.6 6.4 0.00 0.00 0.00 50 1016.3
20260503181553 13 344 1.6 4.8 0.00 0.00 0.00 49 1016.5
20260503180547 13 357 1.6 6.4 0.00 0.00 0.00 49 1016.3
20260503180043 13 357 1.6 4.8 0.00 0.00 0.00 47 1016.3
20260503175543 13 280 0.0 3.2 0.00 0.00 0.00 46 1016.1
20260503175054 13 318 0.0 3.2 0.00 0.00 0.00 46 1016.1
20260503174547 13 298 1.6 4.8 0.00 0.00 0.00 47 1016.1
20260503174042 14 295 1.6 6.4 0.00 0.00 0.00 46 1016.0
20260503173537 14 292 1.6 6.4 0.00 0.00 0.00 46 1016.0
20260503173042 15 291 1.6 8.0 0.00 0.00 0.00 46 1016.0
20260503172535 15 289 1.6 8.0 0.00 0.00 0.00 45 1015.9
20260503172035 15 272 1.6 4.8 0.00 0.00 0.00 44 1015.9
20260503171546 15 280 1.6 9.7 0.00 0.00 0.00 44 1015.9
20260503171047 15 294 1.6 9.7 0.00 0.00 0.00 43 1015.8
20260503170458 16 311 1.6 6.4 0.00 0.00 0.00 42 1015.8
20260503150814 17 100 1.6 4.8 0.00 0.00 0.00 35 1015.9
20260503150302 17 113 1.6 4.8 0.00 0.00 0.00 33 1015.9
20260503140251 17 130 0.0 4.8 0.00 0.00 0.00 34 1016.2
20260503131337 16 92 1.6 4.8 0.00 0.00 0.00 37 1016.8
20260503131145 16 95 3.2 9.7 0.00 0.00 0.00 40 1016.7
20260503110733 15 213 1.6 8.0 0.00 0.00 0.00 45 1017.9
20260503110527 15 206 1.6 4.8 0.00 0.00 0.00 43 1017.9
20260503090422 13 352 4.8 11.3 0.00 0.00 0.00 55 1019.0
20260503090341 12 21 8.0 12.9 0.00 0.00 0.00 57 1018.9
20260503081449 12 11 6.4 11.3 0.00 0.00 0.00 61 1019.0
20260503080359 11 17 6.4 14.5 0.00 0.00 0.00 64 1019.0
20260503071504 10 354 8.0 20.9 0.00 0.00 0.00 77 1019.0
20260503071015 10 243 8.0 20.9 0.00 0.00 0.00 79 1019.0
20260503070339 9 357 4.8 16.1 0.00 0.00 0.00 80 1019.0
20260503060323 10 257 3.2 11.3 0.00 0.00 0.00 93 1018.4
20260503054838 9 295 1.6 8.0 0.00 0.00 0.00 94 1018.2
20260503054339 10 301 1.6 6.4 0.00 0.00 0.00 95 1018.0
20260503053845 9 356 1.6 8.0 0.00 0.00 0.00 95 1018.0
20260503053336 9 354 1.6 8.0 0.00 0.00 0.00 95 1018.0
20260503052847 9 354 1.6 8.0 0.00 0.00 0.00 96 1017.8
20260503052314 9 354 1.6 8.0 0.00 0.00 0.00 95 1017.8
20260503051811 9 356 0.0 3.2 0.00 0.00 0.00 96 1017.8
20260503051418 9 353 0.0 0.0 0.00 0.00 0.00 96 1017.7
20260503051307 9 353 0.0 0.0 0.00 0.00 0.00 96 1017.7
20260503050315 8 353 0.0 0.0 0.00 0.00 0.00 95 1017.7
20260503045815 8 352 0.0 0.0 0.00 0.00 0.00 95 1017.6
20260503045301 8 354 0.0 3.2 0.00 0.00 0.00 95 1017.6
20260503044755 8 350 1.6 9.7 0.00 0.00 0.00 95 1017.5
20260503044256 8 353 3.2 9.7 0.00 0.00 0.00 95 1017.4
20260503043826 8 354 3.2 9.7 0.00 0.00 0.00 94 1017.4
20260503043253 8 349 4.8 11.3 0.00 0.00 0.00 94 1017.4
20260503042944 8 354 4.8 11.3 0.00 0.00 0.00 94 1017.4
20260503042755 8 356 4.8 11.3 0.00 0.00 0.00 94 1017.4
20260503041733 8 353 6.4 9.7 0.00 0.00 0.00 94 1017.4
20260503040725 8 356 4.8 11.3 0.00 0.00 0.00 94 1017.2
20260503040217 8 353 3.2 11.3 0.00 0.00 0.00 94 1017.2
20260503035724 8 354 4.8 11.3 0.00 0.00 0.00 94 1017.1
20260503035647 8 354 6.4 12.9 0.00 0.00 0.00 94 1017.1
20260503035450 9 357 1.6 9.7 0.00 0.00 0.00 92 1016.6
20260503035246 8 359 6.4 12.9 0.00 0.00 0.00 94 1017.1
20260503034337 9 354 0.0 1.6 0.00 0.00 0.00 91 1016.5
20260503034217 8 359 6.4 12.9 0.00 0.00 0.00 94 1017.0
20260503033806 8 359 6.4 12.9 0.00 0.00 0.00 93 1017.0
20260503033408 8 359 4.8 12.9 0.00 0.00 0.00 93 1017.0
20260503033005 8 352 4.8 12.9 0.00 0.00 0.00 93 1016.8
20260503032426 8 239 4.8 11.3 0.00 0.00 0.00 93 1016.8
20260503031824 9 246 3.2 11.3 0.00 0.00 0.00 93 1016.8
20260503031248 9 232 1.6 9.7 0.00 0.00 0.00 92 1016.6
20260503030206 9 234 1.6 4.8 0.00 0.00 0.00 92 1016.6
20260503025709 9 356 3.2 8.0 0.00 0.00 0.00 92 1016.8
20260503025224 9 357 4.8 12.9 0.00 0.00 0.00 91 1016.8
20260503024734 9 359 4.8 12.9 0.00 0.00 0.00 91 1016.8
20260503024243 9 264 6.4 12.9 0.00 0.00 0.00 91 1016.8
20260503023743 9 254 8.0 12.9 0.00 0.00 0.00 91 1016.8
20260503023230 9 357 6.4 12.9 0.00 0.00 0.00 91 1016.8
20260503022725 9 356 1.6 12.9 0.00 0.00 0.00 91 1016.5
20260503021656 9 347 0.0 1.6 0.00 0.00 0.00 91 1016.5
20260503021142 9 347 0.0 3.2 0.00 0.00 0.00 91 1016.6
20260503020633 9 346 1.6 4.8 0.00 0.00 0.00 91 1016.6